SKW6357 KDRO-KPHX

Flight info

Callsign SKW6357
Flight time 0h 58m
Altitude 36000
Route DRO MARKE GUP EAGUL6
Aircraft CRJ7/M-SDFGIRWY/S

Departure

Time 2026-05-04 01:27
Airport Durango La Plata County Airport (KDRO)

Arrival

Time 2026-05-04 02:26
Airport Phoenix Sky Harbor International Airport (KPHX)
Time Latitude Longitude Altitude Speed Heading
2026-05-04 01:10 37.15904 -107.75026 6684 ft 0 kts 304°
2026-05-04 01:21 37.15899 -107.75016 6684 ft 2 kts 303°
2026-05-04 01:22 37.15891 -107.74998 6685 ft 2 kts 300°
2026-05-04 01:22 37.15881 -107.74982 6685 ft 2 kts 317°
2026-05-04 01:22 37.15866 -107.74973 6684 ft 2 kts 349°
2026-05-04 01:22 37.15862 -107.74972 6684 ft 0 kts 351°
2026-05-04 01:24 37.15865 -107.74971 6684 ft 1 kts 23°
2026-05-04 01:24 37.15895 -107.74936 6685 ft 14 kts 48°
2026-05-04 01:25 37.15921 -107.74825 6687 ft 11 kts 55°
2026-05-04 01:25 37.15971 -107.74770 6689 ft 10 kts 37°
2026-05-04 01:25 37.16029 -107.74714 6692 ft 12 kts 38°
2026-05-04 01:25 37.16091 -107.74654 6692 ft 14 kts 36°
2026-05-04 01:26 37.16172 -107.74578 6694 ft 14 kts 37°
2026-05-04 01:26 37.16197 -107.74509 6699 ft 7 kts 115°
2026-05-04 01:26 37.16165 -107.74465 6700 ft 8 kts 147°
2026-05-04 01:26 37.16077 -107.74503 6695 ft 35 kts 217°
2026-05-04 01:27 37.15683 -107.74877 6682 ft 105 kts 217°
2026-05-04 01:27 37.14951 -107.75576 6668 ft 154 kts 218°
2026-05-04 01:27 37.14081 -107.76407 7134 ft 156 kts 218°
2026-05-04 01:27 37.13232 -107.77197 7812 ft 146 kts 223°
2026-05-04 01:28 37.12762 -107.78277 8278 ft 141 kts 253°
2026-05-04 01:28 37.12451 -107.79461 8639 ft 148 kts 251°
2026-05-04 01:28 37.12095 -107.80731 8899 ft 162 kts 251°
2026-05-04 01:28 37.11710 -107.82116 9100 ft 178 kts 251°
2026-05-04 01:29 37.11271 -107.83765 9290 ft 218 kts 252°
2026-05-04 01:29 37.10786 -107.85682 9820 ft 242 kts 252°
2026-05-04 01:29 37.10264 -107.87782 10424 ft 262 kts 252°
2026-05-04 01:29 37.09696 -107.90039 11013 ft 282 kts 252°
2026-05-04 01:30 37.09083 -107.92447 11647 ft 299 kts 252°
2026-05-04 01:30 37.08442 -107.94991 12355 ft 312 kts 252°
2026-05-04 01:30 37.07778 -107.97616 13248 ft 318 kts 252°
2026-05-04 01:30 37.07117 -108.00281 14126 ft 322 kts 252°
2026-05-04 01:31 37.06487 -108.02603 14850 ft 325 kts 245°
2026-05-04 01:31 37.05080 -108.04801 15652 ft 329 kts 222°
2026-05-04 01:31 37.03326 -108.06653 16460 ft 331 kts 221°
2026-05-04 01:31 37.01522 -108.08466 17236 ft 335 kts 219°
2026-05-04 01:32 36.99738 -108.09791 17895 ft 341 kts 207°
2026-05-04 01:32 36.97527 -108.10906 18572 ft 345 kts 204°
2026-05-04 01:32 36.95265 -108.11961 19212 ft 348 kts 204°
2026-05-04 01:32 36.92992 -108.13031 19839 ft 350 kts 205°
2026-05-04 01:33 36.90723 -108.14168 20467 ft 352 kts 206°
2026-05-04 01:33 36.88454 -108.15351 21074 ft 355 kts 206°
2026-05-04 01:33 36.86164 -108.16544 21664 ft 358 kts 207°
2026-05-04 01:33 36.83861 -108.17738 22242 ft 360 kts 207°
2026-05-04 01:34 36.81534 -108.18945 22814 ft 363 kts 207°
2026-05-04 01:34 36.79196 -108.20161 23364 ft 366 kts 207°
2026-05-04 01:34 36.76840 -108.21381 23823 ft 368 kts 207°
2026-05-04 01:34 36.74477 -108.22604 24318 ft 368 kts 207°
2026-05-04 01:35 36.72132 -108.23818 24765 ft 370 kts 207°
2026-05-04 01:35 36.69754 -108.25046 25201 ft 371 kts 208°
2026-05-04 01:35 36.67365 -108.26282 25634 ft 373 kts 208°
2026-05-04 01:35 36.64958 -108.27528 26051 ft 375 kts 208°
2026-05-04 01:36 36.62545 -108.28771 26449 ft 377 kts 208°
2026-05-04 01:36 36.60117 -108.30024 26832 ft 378 kts 208°
2026-05-04 01:36 36.57681 -108.31283 27211 ft 380 kts 208°
2026-05-04 01:36 36.55231 -108.32543 27518 ft 382 kts 208°
2026-05-04 01:37 36.52773 -108.33809 27884 ft 383 kts 208°
2026-05-04 01:37 36.50304 -108.35079 28232 ft 385 kts 209°
2026-05-04 01:37 36.47825 -108.36354 28573 ft 387 kts 210°
2026-05-04 01:37 36.45331 -108.37635 28914 ft 388 kts 210°
2026-05-04 01:38 36.42832 -108.38917 29223 ft 390 kts 210°
2026-05-04 01:38 36.40322 -108.40205 29495 ft 391 kts 210°
2026-05-04 01:38 36.37800 -108.41498 29752 ft 393 kts 210°
2026-05-04 01:38 36.35272 -108.42795 29955 ft 394 kts 210°
2026-05-04 01:39 36.32733 -108.44095 30158 ft 395 kts 210°
2026-05-04 01:39 36.31048 -108.44955 30280 ft 395 kts 210°
2026-05-04 01:39 36.28504 -108.46258 30444 ft 397 kts 210°
2026-05-04 01:39 36.25945 -108.47565 30596 ft 397 kts 211°
2026-05-04 01:40 36.23390 -108.48871 30724 ft 398 kts 211°
2026-05-04 01:40 36.20822 -108.50180 30859 ft 399 kts 211°
2026-05-04 01:40 36.18250 -108.51490 31126 ft 400 kts 211°
2026-05-04 01:40 36.15665 -108.52808 31392 ft 402 kts 212°
2026-05-04 01:41 36.13078 -108.54127 31691 ft 402 kts 212°
2026-05-04 01:41 36.10494 -108.55440 32038 ft 401 kts 212°
2026-05-04 01:41 36.07915 -108.56751 32368 ft 400 kts 212°
2026-05-04 01:41 36.05342 -108.58058 32725 ft 399 kts 213°
2026-05-04 01:42 36.02776 -108.59361 33038 ft 398 kts 213°
2026-05-04 01:42 36.00219 -108.60658 33337 ft 397 kts 213°
2026-05-04 01:42 35.98001 -108.61793 33509 ft 398 kts 213°
2026-05-04 01:42 35.95442 -108.63090 33790 ft 398 kts 213°
2026-05-04 01:43 35.92884 -108.64383 34042 ft 396 kts 213°
2026-05-04 01:43 35.90333 -108.65672 34279 ft 396 kts 213°
2026-05-04 01:43 35.87787 -108.66959 34500 ft 395 kts 213°
2026-05-04 01:43 35.85246 -108.68242 34735 ft 394 kts 213°
2026-05-04 01:44 35.82710 -108.69523 34956 ft 393 kts 213°
2026-05-04 01:44 35.80178 -108.70801 35166 ft 393 kts 213°
2026-05-04 01:44 35.77652 -108.72076 35382 ft 392 kts 213°
2026-05-04 01:44 35.75132 -108.73344 35598 ft 391 kts 213°
2026-05-04 01:45 35.72613 -108.74617 35738 ft 391 kts 213°
2026-05-04 01:45 35.70089 -108.75895 35934 ft 394 kts 213°
2026-05-04 01:45 35.64971 -108.78478 36036 ft 401 kts 213°
2026-05-04 01:46 35.59763 -108.81148 36075 ft 410 kts 213°
2026-05-04 01:46 35.54427 -108.83838 36082 ft 419 kts 212°
2026-05-04 01:47 35.49314 -108.87107 36090 ft 409 kts 225°
2026-05-04 01:47 35.44745 -108.91340 36054 ft 412 kts 226°
2026-05-04 01:48 35.40583 -108.96071 36014 ft 406 kts 234°
2026-05-04 01:48 35.37001 -109.00874 35989 ft 406 kts 235°
2026-05-04 01:49 35.33214 -109.05893 35952 ft 396 kts 234°
2026-05-04 01:49 35.29472 -109.10736 35891 ft 388 kts 234°
2026-05-04 01:50 35.25780 -109.15499 35878 ft 383 kts 234°
2026-05-04 01:50 35.22118 -109.20214 35885 ft 387 kts 234°
2026-05-04 01:51 35.18383 -109.25016 35889 ft 392 kts 234°
2026-05-04 01:51 35.14597 -109.29867 35878 ft 396 kts 234°
2026-05-04 01:52 35.10778 -109.34772 35887 ft 400 kts 234°
2026-05-04 01:52 35.06914 -109.39717 35866 ft 404 kts 234°
2026-05-04 01:53 35.03020 -109.44696 35860 ft 407 kts 234°
2026-05-04 01:53 34.99297 -109.49448 35861 ft 409 kts 234°
2026-05-04 01:54 34.95385 -109.54433 35853 ft 410 kts 234°
2026-05-04 01:54 34.91428 -109.59470 35847 ft 412 kts 234°
2026-05-04 01:55 34.87458 -109.64516 35852 ft 413 kts 233°
2026-05-04 01:55 34.83474 -109.69556 35837 ft 413 kts 234°
2026-05-04 01:56 34.79569 -109.74525 35835 ft 398 kts 234°
2026-05-04 01:56 34.75803 -109.79317 35833 ft 386 kts 234°
2026-05-04 01:57 34.72320 -109.84139 35834 ft 371 kts 243°
2026-05-04 01:57 34.69544 -109.89423 35838 ft 371 kts 245°
2026-05-04 01:58 34.67175 -109.94955 35859 ft 368 kts 251°
2026-05-04 01:58 34.65244 -110.00357 35732 ft 362 kts 251°
2026-05-04 01:59 34.64250 -110.03146 35557 ft 363 kts 252°
2026-05-04 01:59 34.63220 -110.05982 35387 ft 371 kts 251°
2026-05-04 01:59 34.62151 -110.08855 35224 ft 374 kts 251°
2026-05-04 01:59 34.61075 -110.11739 35061 ft 376 kts 250°
2026-05-04 02:00 34.59993 -110.14631 34895 ft 377 kts 251°
2026-05-04 02:00 34.58904 -110.17529 34734 ft 378 kts 251°
2026-05-04 02:00 34.57813 -110.20440 34577 ft 379 kts 251°
2026-05-04 02:00 34.56722 -110.23345 34393 ft 378 kts 251°
2026-05-04 02:01 34.55633 -110.26240 34212 ft 376 kts 251°
2026-05-04 02:01 34.54553 -110.29119 34022 ft 375 kts 251°
2026-05-04 02:01 34.53470 -110.32001 33840 ft 376 kts 251°
2026-05-04 02:01 34.52384 -110.34886 33649 ft 376 kts 251°
2026-05-04 02:02 34.51295 -110.37775 33445 ft 377 kts 251°
2026-05-04 02:02 34.50204 -110.40671 33224 ft 378 kts 251°
2026-05-04 02:02 34.49111 -110.43570 32958 ft 380 kts 251°
2026-05-04 02:02 34.48003 -110.46487 32539 ft 378 kts 251°
2026-05-04 02:03 34.46913 -110.49352 32127 ft 372 kts 251°
2026-05-04 02:03 34.45846 -110.52171 31726 ft 364 kts 251°
2026-05-04 02:03 34.44815 -110.54901 31333 ft 359 kts 251°
2026-05-04 02:03 34.43781 -110.57637 30945 ft 357 kts 250°
2026-05-04 02:04 34.42745 -110.60370 30567 ft 357 kts 250°
2026-05-04 02:04 34.41706 -110.63109 30187 ft 358 kts 250°
2026-05-04 02:04 34.40663 -110.65863 29787 ft 361 kts 250°
2026-05-04 02:04 34.39610 -110.68628 29379 ft 362 kts 249°
2026-05-04 02:05 34.38555 -110.71405 28964 ft 362 kts 249°
2026-05-04 02:05 34.37502 -110.74159 28573 ft 359 kts 249°
2026-05-04 02:05 34.36434 -110.76869 28182 ft 356 kts 245°
2026-05-04 02:05 34.35046 -110.79355 27799 ft 356 kts 239°
2026-05-04 02:06 34.33554 -110.81737 27420 ft 354 kts 238°
2026-05-04 02:06 34.31993 -110.84043 27044 ft 354 kts 234°
2026-05-04 02:06 34.30325 -110.86236 26672 ft 354 kts 232°
2026-05-04 02:06 34.28618 -110.88380 26299 ft 353 kts 232°
2026-05-04 02:07 34.26917 -110.90513 25952 ft 352 kts 232°
2026-05-04 02:07 34.25225 -110.92644 25611 ft 351 kts 232°
2026-05-04 02:07 34.23554 -110.94785 25266 ft 350 kts 232°
2026-05-04 02:07 34.21886 -110.96919 24934 ft 349 kts 232°
2026-05-04 02:08 34.20267 -110.99043 24592 ft 347 kts 233°
2026-05-04 02:08 34.18849 -111.00950 24278 ft 347 kts 233°
2026-05-04 02:08 34.17219 -111.03094 23950 ft 343 kts 232°
2026-05-04 02:08 34.15603 -111.05169 23619 ft 336 kts 231°
2026-05-04 02:09 34.14016 -111.07195 23252 ft 329 kts 231°
2026-05-04 02:09 34.12472 -111.09196 22877 ft 324 kts 232°
2026-05-04 02:09 34.10937 -111.11176 22455 ft 322 kts 231°
2026-05-04 02:09 34.09401 -111.13152 22083 ft 323 kts 231°
2026-05-04 02:10 34.07868 -111.15142 21716 ft 325 kts 230°
2026-05-04 02:10 34.06314 -111.17130 21347 ft 326 kts 230°
2026-05-04 02:10 34.04751 -111.19109 20958 ft 323 kts 229°
2026-05-04 02:10 34.03237 -111.21065 20530 ft 317 kts 230°
2026-05-04 02:11 34.01733 -111.22983 20158 ft 313 kts 229°
2026-05-04 02:11 34.00235 -111.24866 19803 ft 310 kts 229°
2026-05-04 02:11 33.98927 -111.26508 19488 ft 307 kts 229°
2026-05-04 02:11 33.97452 -111.28370 19136 ft 307 kts 229°
2026-05-04 02:12 33.95984 -111.30237 18790 ft 307 kts 229°
2026-05-04 02:12 33.94509 -111.32119 18441 ft 310 kts 228°
2026-05-04 02:12 33.93023 -111.34016 18102 ft 312 kts 228°
2026-05-04 02:12 33.91536 -111.35927 17692 ft 314 kts 228°
2026-05-04 02:13 33.90056 -111.37827 17348 ft 307 kts 228°
2026-05-04 02:13 33.88630 -111.39671 16858 ft 305 kts 227°
2026-05-04 02:13 33.87086 -111.41420 16247 ft 307 kts 219°
2026-05-04 02:13 33.85376 -111.42939 15516 ft 305 kts 215°
2026-05-04 02:14 33.83633 -111.44377 14786 ft 303 kts 214°
2026-05-04 02:14 33.81906 -111.45823 14064 ft 301 kts 214°
2026-05-04 02:14 33.80199 -111.47278 13355 ft 300 kts 214°
2026-05-04 02:14 33.78491 -111.48733 12673 ft 302 kts 213°
2026-05-04 02:15 33.76772 -111.50179 12154 ft 298 kts 214°
2026-05-04 02:15 33.75091 -111.51577 11625 ft 289 kts 213°
2026-05-04 02:15 33.73464 -111.52949 11110 ft 284 kts 214°
2026-05-04 02:15 33.71842 -111.54330 10615 ft 286 kts 214°
2026-05-04 02:16 33.70242 -111.55696 10105 ft 279 kts 215°
2026-05-04 02:16 33.68686 -111.57036 9688 ft 269 kts 214°
2026-05-04 02:16 33.67200 -111.58304 9440 ft 256 kts 215°
2026-05-04 02:16 33.65791 -111.59516 9191 ft 242 kts 215°
2026-05-04 02:17 33.64449 -111.60661 8726 ft 234 kts 215°
2026-05-04 02:17 33.63161 -111.61767 8428 ft 224 kts 215°
2026-05-04 02:17 33.61893 -111.62856 8114 ft 224 kts 215°
2026-05-04 02:17 33.60626 -111.63943 7804 ft 224 kts 215°
2026-05-04 02:18 33.59355 -111.65013 7507 ft 223 kts 215°
2026-05-04 02:18 33.58087 -111.66079 7206 ft 222 kts 215°
2026-05-04 02:18 33.56822 -111.67133 6901 ft 221 kts 214°
2026-05-04 02:18 33.55559 -111.68179 6526 ft 220 kts 214°
2026-05-04 02:19 33.54293 -111.69163 6288 ft 214 kts 214°
2026-05-04 02:19 33.53079 -111.70165 6055 ft 209 kts 216°
2026-05-04 02:19 33.51909 -111.71140 5797 ft 199 kts 215°
2026-05-04 02:19 33.50787 -111.72048 5547 ft 190 kts 215°
2026-05-04 02:20 33.49707 -111.72926 5285 ft 186 kts 215°
2026-05-04 02:20 33.48631 -111.73789 5013 ft 186 kts 214°
2026-05-04 02:20 33.47546 -111.74649 4781 ft 188 kts 214°
2026-05-04 02:20 33.46609 -111.75715 4525 ft 187 kts 235°
2026-05-04 02:21 33.45904 -111.77026 4264 ft 187 kts 236°
2026-05-04 02:21 33.45223 -111.78342 4125 ft 185 kts 237°
2026-05-04 02:21 33.44578 -111.79653 4050 ft 182 kts 243°
2026-05-04 02:21 33.44280 -111.81177 3985 ft 198 kts 257°
2026-05-04 02:22 33.44079 -111.82814 3691 ft 198 kts 262°
2026-05-04 02:22 33.44035 -111.84440 3478 ft 186 kts 267°
2026-05-04 02:22 33.44032 -111.85901 3254 ft 176 kts 267°
2026-05-04 02:22 33.44037 -111.87383 2948 ft 170 kts 267°
2026-05-04 02:23 33.44064 -111.88639 2704 ft 137 kts 266°
2026-05-04 02:23 33.44076 -111.89705 2534 ft 126 kts 263°
2026-05-04 02:23 33.44070 -111.90753 2357 ft 127 kts 263°
2026-05-04 02:23 33.44071 -111.91835 2209 ft 132 kts 265°
2026-05-04 02:24 33.44078 -111.92939 2092 ft 132 kts 261°
2026-05-04 02:24 33.44053 -111.94014 1956 ft 128 kts 266°
2026-05-04 02:24 33.44068 -111.95089 1831 ft 126 kts 268°
2026-05-04 02:24 33.44070 -111.96163 1707 ft 132 kts 267°
2026-05-04 02:25 33.44075 -111.97208 1541 ft 121 kts 268°
2026-05-04 02:25 33.44080 -111.98216 1357 ft 122 kts 268°
2026-05-04 02:25 33.44084 -111.99241 1161 ft 123 kts 268°
2026-05-04 02:25 33.44083 -112.00103 1130 ft 80 kts 271°
2026-05-04 02:26 33.44084 -112.00478 1127 ft 28 kts 270°
2026-05-04 02:26 33.44074 -112.00679 1122 ft 18 kts 248°
2026-05-04 02:26 33.44006 -112.00731 1120 ft 12 kts 167°
2026-05-04 02:26 33.43974 -112.00639 1124 ft 14 kts 91°
2026-05-04 02:27 33.43974 -112.00561 1119 ft 15 kts 90°
2026-05-04 02:27 33.43973 -112.00434 1119 ft 16 kts 90°
2026-05-04 02:27 33.43973 -112.00292 1122 ft 19 kts 89°
2026-05-04 02:27 33.43973 -112.00121 1123 ft 22 kts 90°
2026-05-04 02:28 33.43973 -111.99943 1125 ft 25 kts 90°
2026-05-04 02:28 33.43973 -111.99733 1122 ft 25 kts 90°
2026-05-04 02:28 33.43968 -111.99578 1126 ft 13 kts 115°
2026-05-04 02:28 33.43884 -111.99574 1123 ft 15 kts 191°
2026-05-04 02:29 33.43777 -111.99577 1119 ft 16 kts 180°
2026-05-04 02:29 33.43670 -111.99586 1119 ft 13 kts 211°
2026-05-04 02:29 33.43651 -111.99609 1122 ft 0 kts 232°